Regional Weather Roundup
Issued by NWS

Home | Current Version | Previous Version | Text Only | Print | Product List | Glossary On
Versions: 1 2 3 4 5 6 7 8 9 10 11 12 13 14 15 16 17 18 19 20 21 22 23 24 25 26 27 28 29 30 31 32 33 34 35 36 37 38 39 40 41 42 43 44 45 46 47 48 49 50
000
ASUS46 KPQR 201910
RWROR

OREGON REGIONAL WEATHER ROUNDUP
NATIONAL WEATHER SERVICE PORTLAND OR
1200 PM PDT MON OCT 20 2014

NOTE: "FAIR" INDICATES FEW OR NO CLOUDS BELOW 12,000 FEET WITH
NO SIGNIFICANT WEATHER AND/OR OBSTRUCTIONS TO VISIBILITY.

ORZ001>013-202000-
NORTHWEST OREGON


CITY           SKY/WX    TMP DP  RH WIND       PRES   REMARKS
ASTORIA        MOSUNNY   61  55  81 S12       29.75S
NEWPORT        MOSUNNY   61  55  82 S20G28    29.82S HAZE
PORTLAND       LGT RAIN  60  56  86 S12       29.81R
VANCOUVER WA   CLOUDY    60  54  80 S9        29.82R
SCAPPOOSE      CLOUDY    59  56  89 SW5       29.79R
HILLSBORO      CLOUDY    60  56  86 S13       29.80R
AURORA         LGT RAIN  58  55  90 S9        29.83R
MCMINNVILLE    CLOUDY    61  56  83 SE13      29.81R
SALEM          CLOUDY    59  56  89 SE10      29.82R
CORVALLIS      CLOUDY    61  57  88 S14       29.83S
EUGENE         CLOUDY    60  56  86 SE12      29.83R
$$

ORZ021-028-202000-
SOUTHWEST OREGON


CITY           SKY/WX    TMP DP  RH WIND       PRES   REMARKS
NORTH BEND     PTSUNNY   57  57 100 SW5       29.83F
BROOKINGS      CLOUDY    60  58  93 S16       29.88S FOG
ROSEBURG       CLOUDY    61  55  81 CALM      29.84R
SEXTON SUMMIT  FOG       47  46  97 S13G25    29.86S VSB 1/4
MEDFORD        LGT RAIN  58  53  84 NE7       29.86S
$$

ORZ009-041-202000-
COLUMBIA GORGE


CITY           SKY/WX    TMP DP  RH WIND       PRES   REMARKS
TROUTDALE      LGT RAIN  60  54  80 S5        29.80R
THE DALLES     CLOUDY    60  56  86 NE3       29.77S
$$

ORZ029>031-042>050-061>064-202000-
EASTERN OREGON


CITY           SKY/WX    TMP DP  RH WIND       PRES   REMARKS
REDMOND        CLOUDY    53  44  71 NW15      29.81R
BEND           MOCLDY    63  43  48 SW14      29.81R
KLAMATH FALLS  LGT RAIN  56  44  64 S20       29.84F
LAKEVIEW       MOSUNNY   64  34  32 S16       29.90F
HERMISTON      SUNNY     63  49  60 VRB7      29.75F
PENDLETON      MOSUNNY   63  46  54 MISG      29.76S
JOHN DAY       PTCLDY    71  29  20 S15G28    29.81F
MEACHAM        PTSUNNY   69  33  26 VRB3      29.79F
LA GRANDE      MOSUNNY   75  30  19 S21G32    29.76F
BAKER CITY     SUNNY     73  25  16 SE14G20   29.82F
BURNS          MOSUNNY   67  27  22 SE20      29.87F
ROME             N/A     70  25  18 VRB5      29.87F
ONTARIO        SUNNY     64  38  38 CALM      29.86F
$$



USA.gov is the U.S. government's official web portal to all federal, state and local government web resources and services.